| time (UTC) | temp F | wind direction | speed knots | gust knots | rain 1hr in | rain 24hr in | rain mn in | humidity % | barometer mb |
| 20260506013654 | 50 | 186 | 1.7 | 1.7 | 0.00 | 0.00 | 0.00 | ||
| 20260506013152 | 49 | 219 | 1.7 | 2.6 | 0.00 | 0.00 | 0.00 | ||
| 20260506012653 | 49 | 203 | 1.7 | 1.7 | 0.00 | 0.00 | 0.00 | ||
| 20260506012155 | 50 | 187 | 1.7 | 0.9 | 0.00 | 0.00 | 0.00 | ||
| 20260506011656 | 49 | 39 | 0.0 | 0.0 | 0.00 | 0.00 | 0.00 | ||
| 20260506010656 | 50 | 39 | 0.0 | 0.0 | 0.00 | 0.00 | 0.00 | ||
| 20260506010158 | 50 | 39 | 0.0 | 0.0 | 0.00 | 0.00 | 0.00 | ||
| 20260506005200 | 51 | 39 | 0.0 | 0.0 | 0.00 | 0.00 | 0.00 | ||
| 20260506004702 | 51 | 39 | 0.0 | 0.0 | 0.00 | 0.00 | 0.00 | ||
| 20260506003702 | 50 | 39 | 0.0 | 0.0 | 0.00 | 0.00 | 0.00 | ||
| 20260506002203 | 50 | 39 | 0.0 | 0.0 | 0.00 | 0.00 | 0.00 | ||
| 20260506001701 | 50 | 39 | 0.0 | 0.0 | 0.00 | 0.00 | 0.00 | ||
| 20260506001203 | 49 | 39 | 0.0 | 0.0 | 0.00 | 0.00 | 0.00 | ||
| 20260506000205 | 48 | 39 | 0.0 | 0.0 | 0.00 | 0.00 | 0.00 | ||
| 20260505235707 | 49 | 39 | 0.0 | 0.0 | 0.00 | 0.00 | 0.00 | ||
| 20260505235204 | 51 | 97 | 0.9 | 0.9 | 0.00 | 0.00 | 0.00 | ||
| 20260505234706 | 51 | 158 | 0.0 | 0.0 | 0.00 | 0.00 | 0.00 | ||
| 20260505234207 | 49 | 158 | 0.0 | 0.0 | 0.00 | 0.00 | 0.00 | ||
| 20260505233708 | 52 | 158 | 0.0 | 0.0 | 0.00 | 0.00 | 0.00 | ||
| 20260505233210 | 50 | 158 | 0.0 | 0.0 | 0.00 | 0.00 | 0.00 | ||
| 20260505232708 | 50 | 176 | 2.6 | 1.7 | 0.00 | 0.00 | 0.00 | ||
| 20260505232210 | 49 | 90 | 0.0 | 0.0 | 0.00 | 0.00 | 0.00 | ||
| 20260505230714 | 52 | 217 | 0.0 | 0.0 | 0.00 | 0.00 | 0.00 | ||
| 20260505225714 | 52 | 217 | 0.0 | 0.0 | 0.00 | 0.00 | 0.00 | ||
| 20260505224717 | 52 | 280 | 0.0 | 0.0 | 0.00 | 0.00 | 0.00 | ||
| 20260505224218 | 52 | 280 | 0.0 | 0.0 | 0.00 | 0.00 | 0.00 | ||
| 20260505223715 | 54 | 280 | 0.0 | 0.0 | 0.00 | 0.00 | 0.00 | ||
| 20260505223217 | 53 | 280 | 0.0 | 0.0 | 0.00 | 0.00 | 0.00 | ||
| 20260505222718 | 51 | 280 | 0.0 | 0.0 | 0.00 | 0.00 | 0.00 | ||
| 20260505221219 | 51 | 201 | 0.0 | 0.0 | 0.00 | 0.00 | 0.00 | ||
| 20260505215723 | 50 | 176 | 2.6 | 0.9 | 0.00 | 0.00 | 0.00 | ||
| 20260505214722 | 51 | 172 | 1.7 | 2.6 | 0.00 | 0.00 | 0.00 | ||
| 20260505214223 | 51 | 166 | 1.7 | 2.6 | 0.00 | 0.00 | 0.00 | ||
| 20260505213725 | 52 | 167 | 1.7 | 1.7 | 0.00 | 0.00 | 0.00 | ||
| 20260505213226 | 51 | 195 | 1.7 | 1.7 | 0.00 | 0.00 | 0.00 | ||
| 20260505211726 | 51 | 194 | 2.6 | 1.7 | 0.00 | 0.00 | 0.00 | ||
| 20260505211227 | 50 | 235 | 1.7 | 1.7 | 0.00 | 0.00 | 0.00 | ||
| 20260505210728 | 50 | 184 | 0.9 | 0.0 | 0.00 | 0.00 | 0.00 | ||
| 20260505210230 | 50 | 194 | 1.7 | 1.7 | 0.00 | 0.00 | 0.00 | ||
| 20260505205728 | 51 | 214 | 1.7 | 1.7 | 0.00 | 0.00 | 0.00 | ||
| 20260505204731 | 53 | 183 | 0.9 | 1.7 | 0.00 | 0.00 | 0.00 | ||
| 20260505204232 | 52 | 193 | 1.7 | 1.7 | 0.00 | 0.00 | 0.00 | ||
| 20260505203734 | 51 | 198 | 1.7 | 2.6 | 0.00 | 0.00 | 0.00 | ||
| 20260505202733 | 52 | 173 | 2.6 | 2.6 | 0.00 | 0.00 | 0.00 | ||
| 20260505201735 | 52 | 146 | 2.6 | 2.6 | 0.00 | 0.00 | 0.00 | ||
| 20260505201236 | 52 | 201 | 0.0 | 0.0 | 0.00 | 0.00 | 0.00 | ||
| 20260505200734 | 52 | 201 | 0.0 | 0.0 | 0.00 | 0.00 | 0.00 | ||
| 20260505200235 | 51 | 184 | 2.6 | 1.7 | 0.00 | 0.00 | 0.00 | ||
| 20260505195736 | 51 | 212 | 1.7 | 1.7 | 0.00 | 0.00 | 0.00 | ||
| 20260505194739 | 52 | 152 | 0.0 | 0.0 | 0.00 | 0.00 | 0.00 | ||
| 20260505194236 | 53 | 194 | 1.7 | 1.7 | 0.00 | 0.00 | 0.00 | ||
| 20260505192740 | 53 | 205 | 1.7 | 2.6 | 0.00 | 0.00 | 0.00 | ||
| 20260505192242 | 54 | 190 | 0.9 | 0.0 | 0.00 | 0.00 | 0.00 | ||
| 20260505191238 | 55 | 200 | 1.7 | 1.7 | 0.00 | 0.00 | 0.00 | ||
| 20260505190240 | 54 | 176 | 1.7 | 1.7 | 0.00 | 0.00 | 0.00 | ||
| 20260505185741 | 53 | 139 | 0.0 | 0.0 | 0.00 | 0.00 | 0.00 | ||
| 20260505185236 | 53 | 158 | 0.9 | 0.0 | 0.00 | 0.00 | 0.00 | ||
| 20260505184737 | 54 | 278 | 3.5 | 0.9 | 0.00 | 0.00 | 0.00 | ||
| 20260505183239 | 54 | 256 | 5.2 | 5.2 | 0.00 | 0.00 | 0.00 | ||
| 20260505182737 | 54 | 260 | 4.3 | 6.1 | 0.00 | 0.00 | 0.00 | ||
| 20260505182238 | 55 | 294 | 4.3 | 3.5 | 0.00 | 0.00 | 0.00 | ||
| 20260505181740 | 55 | 229 | 4.3 | 3.5 | 0.00 | 0.00 | 0.00 | ||
| 20260505180742 | 55 | 252 | 5.2 | 7.8 | 0.00 | 0.00 | 0.00 | ||
| 20260505180239 | 55 | 276 | 5.2 | 3.5 | 0.00 | 0.00 | 0.00 | ||
| 20260505175740 | 55 | 250 | 6.1 | 7.8 | 0.00 | 0.00 | 0.00 | ||
| 20260505175242 | 55 | 269 | 5.2 | 5.2 | 0.00 | 0.00 | 0.00 | ||
| 20260505174244 | 55 | 274 | 5.2 | 3.5 | 0.00 | 0.00 | 0.00 | ||
| 20260505172744 | 56 | 252 | 4.3 | 3.5 | 0.00 | 0.00 | 0.00 | ||
| 20260505172245 | 56 | 253 | 3.5 | 6.1 | 0.00 | 0.00 | 0.00 | ||
| 20260505171747 | 56 | 232 | 4.3 | 6.1 | 0.00 | 0.00 | 0.00 | ||
| 20260505170248 | 57 | 263 | 5.2 | 5.2 | 0.00 | 0.00 | 0.00 | ||
| 20260505165749 | 57 | 312 | 5.2 | 5.2 | 0.00 | 0.00 | 0.00 | ||
| 20260505164749 | 57 | 249 | 4.3 | 2.6 | 0.00 | 0.00 | 0.00 | ||
| 20260505164250 | 57 | 250 | 3.5 | 4.3 | 0.00 | 0.00 | 0.00 | ||
| 20260505163752 | 57 | 270 | 4.3 | 4.3 | 0.00 | 0.00 | 0.00 | ||
| 20260505163253 | 57 | 277 | 5.2 | 4.3 | 0.00 | 0.00 | 0.00 | ||
| 20260505162754 | 57 | 256 | 4.3 | 4.3 | 0.00 | 0.00 | 0.00 | ||
| 20260505160756 | 58 | 158 | 0.9 | 1.7 | 0.00 | 0.00 | 0.00 | ||
| 20260505160258 | 59 | 224 | 2.6 | 7.0 | 0.00 | 0.00 | 0.00 | ||
| 20260505153259 | 57 | 210 | 7.8 | 7.0 | 0.00 | 0.00 | 0.00 | ||
| 20260505152801 | 58 | 236 | 9.6 | 9.6 | 0.00 | 0.00 | 0.00 | ||
| 20260505152304 | 58 | 207 | 8.7 | 10.4 | 0.00 | 0.00 | 0.00 | ||
| 20260505150801 | 61 | 203 | 7.8 | 7.8 | 0.00 | 0.00 | 0.00 | ||
| 20260505130312 | 75 | 25 | 0.9 | 0.0 | 0.00 | 0.00 | 0.00 | ||
| 20260505124317 | 73 | 309 | 2.6 | 3.5 | 0.00 | 0.00 | 0.00 | ||
| 20260505123316 | 75 | 323 | 3.5 | 3.5 | 0.00 | 0.00 | 0.00 | ||
| 20260505122817 | 75 | 316 | 5.2 | 4.3 | 0.00 | 0.00 | 0.00 | ||
| 20260505122318 | 74 | 328 | 5.2 | 4.3 | 0.00 | 0.00 | 0.00 | ||
| 20260505121819 | 79 | 7 | 2.6 | 2.6 | 0.00 | 0.00 | 0.00 | ||
| 20260505121316 | 75 | 73 | 2.6 | 3.5 | 0.00 | 0.00 | 0.00 | ||
| 20260505120818 | 74 | 297 | 6.1 | 4.3 | 0.00 | 0.00 | 0.00 | ||
| 20260505120319 | 76 | 6 | 5.2 | 7.8 | 0.00 | 0.00 | 0.00 | ||
| 20260505114818 | 74 | 356 | 5.2 | 0.9 | 0.00 | 0.00 | 0.00 | ||
| 20260505113818 | 74 | 340 | 3.5 | 6.1 | 0.00 | 0.00 | 0.00 | ||
| 20260505113319 | 74 | 274 | 7.8 | 6.1 | 0.00 | 0.00 | 0.00 | ||
| 20260505112820 | 80 | 338 | 4.3 | 3.5 | 0.00 | 0.00 | 0.00 | ||
| 20260505112317 | 80 | 321 | 4.3 | 5.2 | 0.00 | 0.00 | 0.00 | ||
| 20260505111818 | 79 | 73 | 2.6 | 7.0 | 0.00 | 0.00 | 0.00 | ||
| 20260505111319 | 77 | 323 | 4.3 | 1.7 | 0.00 | 0.00 | 0.00 | ||
| 20260505110820 | 76 | 353 | 3.5 | 4.3 | 0.00 | 0.00 | 0.00 | ||
| 20260505110321 | 76 | 322 | 7.0 | 5.2 | 0.00 | 0.00 | 0.00 | ||
| 20260505101821 | 73 | 295 | 3.5 | 4.3 | 0.00 | 0.00 | 0.00 | ||
| 20260505101322 | 75 | 226 | 3.5 | 0.0 | 0.00 | 0.00 | 0.00 | ||
| 20260505100819 | 77 | 49 | 4.3 | 0.0 | 0.00 | 0.00 | 0.00 | ||
| 20260505095821 | 75 | 56 | 5.2 | 3.5 | 0.00 | 0.00 | 0.00 | ||
| 20260505095322 | 77 | 342 | 2.6 | 0.0 | 0.00 | 0.00 | 0.00 | ||
| 20260505094823 | 78 | 100 | 4.3 | 4.3 | 0.00 | 0.00 | 0.00 | ||
| 20260505093738 | 73 | 32 | 6.1 | 7.0 | 0.00 | 0.00 | 0.00 | ||
| 20260505092739 | 72 | 14 | 6.1 | 4.3 | 0.00 | 0.00 | 0.00 | ||
| 20260505092240 | 74 | 11 | 6.1 | 2.6 | 0.00 | 0.00 | 0.00 | ||
| 20260505091240 | 73 | 326 | 3.5 | 0.9 | 0.00 | 0.00 | 0.00 | ||
| 20260505090741 | 72 | 62 | 2.6 | 3.5 | 0.00 | 0.00 | 0.00 | ||
| 20260505085743 | 74 | 349 | 2.6 | 0.0 | 0.00 | 0.00 | 0.00 | ||
| 20260505084743 | 71 | 3 | 6.1 | 7.8 | 0.00 | 0.00 | 0.00 | ||
| 20260505084244 | 71 | 7 | 3.5 | 1.7 | 0.00 | 0.00 | 0.00 | ||
| 20260505083745 | 72 | 69 | 3.5 | 3.5 | 0.00 | 0.00 | 0.00 | ||
| 20260505083246 | 70 | 53 | 5.2 | 6.1 | 0.00 | 0.00 | 0.00 | ||
| 20260505082744 | 69 | 10 | 0.9 | 7.0 | 0.00 | 0.00 | 0.00 | ||
| 20260505082245 | 68 | 14 | 5.2 | 4.3 | 0.00 | 0.00 | 0.00 | ||
| 20260505081747 | 69 | 329 | 7.0 | 6.1 | 0.00 | 0.00 | 0.00 | ||
| 20260505081248 | 69 | 266 | 0.9 | 0.0 | 0.00 | 0.00 | 0.00 | ||
| 20260505080748 | 70 | 354 | 0.0 | 0.0 | 0.00 | 0.00 | 0.00 | ||
| 20260505080247 | 69 | 20 | 3.5 | 1.7 | 0.00 | 0.00 | 0.00 | ||
| 20260505075748 | 69 | 46 | 3.5 | 0.9 | 0.00 | 0.00 | 0.00 | ||
| 20260505075250 | 70 | 21 | 1.7 | 4.3 | 0.00 | 0.00 | 0.00 | ||
| 20260505074252 | 68 | 51 | 5.2 | 2.6 | 0.00 | 0.00 | 0.00 | ||
| 20260505073751 | 68 | 6 | 1.7 | 3.5 | 0.00 | 0.00 | 0.00 | ||
| 20260505073252 | 68 | 6 | 1.7 | 3.5 | 0.00 | 0.00 | 0.00 | ||
| 20260505072753 | 67 | 49 | 0.9 | 2.6 | 0.00 | 0.00 | 0.00 | ||
| 20260505072255 | 66 | 332 | 3.5 | 3.5 | 0.00 | 0.00 | 0.00 | ||
| 20260505071756 | 66 | 11 | 0.9 | 4.3 | 0.00 | 0.00 | 0.00 | ||
| 20260505070756 | 66 | 297 | 3.5 | 3.5 | 0.00 | 0.00 | 0.00 | ||
| 20260505065758 | 65 | 307 | 0.0 | 0.0 | 0.00 | 0.00 | 0.00 | ||
| 20260505065300 | 63 | 307 | 0.0 | 0.0 | 0.00 | 0.00 | 0.00 | ||
| 20260505064757 | 63 | 307 | 1.7 | 0.0 | 0.00 | 0.00 | 0.00 | ||
| 20260505063800 | 63 | 350 | 2.6 | 4.3 | 0.00 | 0.00 | 0.00 | ||
| 20260505063302 | 63 | 319 | 0.0 | 1.7 | 0.00 | 0.00 | 0.00 | ||
| 20260505062803 | 63 | 356 | 1.7 | 3.5 | 0.00 | 0.00 | 0.00 | ||
| 20260505062304 | 62 | 307 | 1.7 | 1.7 | 0.00 | 0.00 | 0.00 | ||
| 20260505061803 | 62 | 308 | 0.0 | 0.0 | 0.00 | 0.00 | 0.00 | ||
| 20260505060806 | 62 | 298 | 1.7 | 3.5 | 0.00 | 0.00 | 0.00 | ||
| 20260505055805 | 61 | 274 | 0.9 | 0.9 | 0.00 | 0.00 | 0.00 | ||
| 20260505053811 | 59 | 129 | 0.0 | 0.0 | 0.00 | 0.00 | 0.00 | ||
| 20260505052312 | 56 | 150 | 0.0 | 0.0 | 0.00 | 0.00 | 0.00 | ||
| 20260505051315 | 58 | 150 | 0.0 | 0.0 | 0.00 | 0.00 | 0.00 | ||
| 20260505050813 | 58 | 150 | 0.0 | 0.0 | 0.00 | 0.00 | 0.00 | ||
| 20260505041323 | 57 | 250 | 0.0 | 0.0 | 0.00 | 0.00 | 0.00 | ||
| 20260505040824 | 56 | 250 | 0.0 | 0.0 | 0.00 | 0.00 | 0.00 | ||
| 20260505035827 | 54 | 232 | 1.7 | 1.7 | 0.00 | 0.00 | 0.00 | ||
| 20260505035325 | 54 | 11 | 0.0 | 0.0 | 0.00 | 0.00 | 0.00 | ||
| 20260505034328 | 55 | 314 | 0.0 | 0.0 | 0.00 | 0.00 | 0.00 | ||
| 20260505032828 | 54 | 335 | 2.6 | 1.7 | 0.00 | 0.00 | 0.00 | ||
| 20260505025335 | 55 | 297 | 2.6 | 2.6 | 0.00 | 0.00 | 0.00 | ||
| 20260505024338 | 55 | 307 | 0.0 | 0.0 | 0.00 | 0.00 | 0.00 | ||
| 20260505023836 | 55 | 298 | 0.0 | 0.0 | 0.00 | 0.00 | 0.00 | ||
| 20260505023338 | 55 | 307 | 0.0 | 0.0 | 0.00 | 0.00 | 0.00 | ||
| 20260505022839 | 55 | 307 | 0.0 | 0.0 | 0.00 | 0.00 | 0.00 | ||
| 20260505021341 | 55 | 300 | 0.0 | 0.0 | 0.00 | 0.00 | 0.00 | ||
| 20260505020842 | 57 | 300 | 0.0 | 0.0 | 0.00 | 0.00 | 0.00 | ||
| 20260505020343 | 56 | 300 | 0.0 | 0.0 | 0.00 | 0.00 | 0.00 | ||
| 20260505015844 | 58 | 300 | 0.0 | 0.0 | 0.00 | 0.00 | 0.00 | ||
| 20260505015346 | 57 | 312 | 0.9 | 3.5 | 0.00 | 0.00 | 0.00 | ||
| 20260505014844 | 58 | 323 | 2.6 | 2.6 | 0.00 | 0.00 | 0.00 | ||
| 20260505014346 | 57 | 315 | 2.6 | 2.6 | 0.00 | 0.00 | 0.00 |